When you browse on this site, cookies collect data to enhance your experience and personalize the content and advertising you see.
Visit our Privacy Policy to learn more. By continuing to use the site, you agree to this use of cookies and data.
  • en France
  • Liste des pays
  • À 7 jours
  • Température de l'eau
  • Carte satellitaire
  • Carte météo
  • Widgets météo
  • user-avatar
    Se connecter

    Météo par heure à Giumri

    Ce jour, 17 Juillet, Mercredi

    Heure Température Précipitation Vent Pression Humidité
    00:00 +15°C° 0 mm 2 m/s 631 mmHg 82%
    01:00 +15°C° 0 mm 2 m/s 631 mmHg 81%
    02:00 +14°C° 0 mm 2 m/s 631 mmHg 81%
    03:00 +14°C° 0 mm 2 m/s 630 mmHg 81%
    04:00 +15°C° 0 mm 2 m/s 631 mmHg 79%
    05:00 +15°C° 0 mm 1 m/s 631 mmHg 78%
    06:00 +16°C° 0 mm 1 m/s 631 mmHg 76%
    07:00 +19°C° 0 mm 1 m/s 631 mmHg 70%
    08:00 +21°C° 0 mm 1 m/s 632 mmHg 64%
    09:00 +23°C° 0 mm 1 m/s 632 mmHg 57%
    10:00 +25°C° 0.1 mm 2 m/s 632 mmHg 54%
    11:00 +26°C° 0.1 mm 2 m/s 633 mmHg 50%
    12:00 +27°C° 0.1 mm 2 m/s 633 mmHg 47%
    13:00 +28°C° 0.2 mm 3 m/s 633 mmHg 46%
    14:00 +28°C° 0.2 mm 3 m/s 633 mmHg 44%
    15:00 +29°C° 0.2 mm 3 m/s 633 mmHg 43%
    16:00 +28°C° 0.2 mm 3 m/s 632 mmHg 48%
    17:00 +27°C° 0.2 mm 3 m/s 632 mmHg 53%
    18:00 +26°C° 0.2 mm 3 m/s 632 mmHg 58%
    19:00 +22°C° 0 mm 3 m/s 631 mmHg 65%
    20:00 +20°C° 0 mm 3 m/s 631 mmHg 71%
    21:00 +18°C° 0 mm 3 m/s 631 mmHg 77%
    22:00 +18°C° 0 mm 3 m/s 631 mmHg 78%
    23:00 +17°C° 0 mm 3 m/s 631 mmHg 78%

    Demain, 18 Juillet, Jeudi

    Heure Température Précipitation Vent Pression Humidité
    00:00 +17°C° 0 mm 3 m/s 631 mmHg 79%
    01:00 +17°C° 0 mm 2 m/s 630 mmHg 81%
    02:00 +16°C° 0 mm 2 m/s 630 mmHg 83%
    03:00 +16°C° 0 mm 2 m/s 630 mmHg 85%
    04:00 +17°C° 0 mm 2 m/s 631 mmHg 85%
    05:00 +17°C° 0 mm 2 m/s 631 mmHg 85%
    06:00 +17°C° 0 mm 2 m/s 631 mmHg 84%
    07:00 +19°C° 0 mm 2 m/s 632 mmHg 77%
    08:00 +21°C° 0 mm 2 m/s 632 mmHg 69%
    09:00 +24°C° 0 mm 2 m/s 633 mmHg 62%
    10:00 +26°C° 0.1 mm 2 m/s 633 mmHg 56%
    11:00 +27°C° 0.1 mm 3 m/s 633 mmHg 50%
    12:00 +28°C° 0.1 mm 3 m/s 633 mmHg 45%
    13:00 +28°C° 0.2 mm 3 m/s 633 mmHg 44%
    14:00 +29°C° 0.2 mm 3 m/s 633 mmHg 42%
    15:00 +29°C° 0.2 mm 3 m/s 633 mmHg 41%
    16:00 +28°C° 0.1 mm 3 m/s 633 mmHg 47%
    17:00 +27°C° 0.1 mm 3 m/s 633 mmHg 54%
    18:00 +26°C° 0.1 mm 3 m/s 632 mmHg 60%
    19:00 +24°C° 0.1 mm 3 m/s 632 mmHg 66%
    20:00 +21°C° 0.1 mm 2 m/s 632 mmHg 72%
    21:00 +19°C° 0.1 mm 2 m/s 632 mmHg 78%
    22:00 +18°C° 0 mm 2 m/s 633 mmHg 78%
    23:00 +18°C° 0 mm 2 m/s 633 mmHg 78%

    Après-demain, 19 Juillet, Vendredi

    Heure Température Précipitation Vent Pression Humidité
    00:00 +17°C° 0 mm 2 m/s 633 mmHg 78%
    01:00 +17°C° 0 mm 2 m/s 633 mmHg 80%
    02:00 +16°C° 0 mm 2 m/s 633 mmHg 81%
    03:00 +16°C° 0 mm 1 m/s 633 mmHg 83%
    04:00 +16°C° 0 mm 1 m/s 633 mmHg 83%
    05:00 +17°C° 0 mm 2 m/s 633 mmHg 83%
    06:00 +17°C° 0 mm 2 m/s 633 mmHg 84%
    07:00 +19°C° 0 mm 2 m/s 634 mmHg 78%
    08:00 +21°C° 0 mm 2 m/s 635 mmHg 72%
    09:00 +23°C° 0 mm 2 m/s 635 mmHg 66%
    10:00 +25°C° 0 mm 2 m/s 636 mmHg 60%
    11:00 +26°C° 0 mm 2 m/s 636 mmHg 54%
    12:00 +27°C° 0 mm 2 m/s 636 mmHg 48%
    13:00 +28°C° 0.2 mm 3 m/s 636 mmHg 49%
    14:00 +28°C° 0.2 mm 3 m/s 636 mmHg 49%
    15:00 +28°C° 0.2 mm 4 m/s 636 mmHg 50%
    16:00 +27°C° 0.2 mm 4 m/s 635 mmHg 55%
    17:00 +26°C° 0.2 mm 4 m/s 635 mmHg 61%
    18:00 +25°C° 0.2 mm 5 m/s 635 mmHg 67%
    19:00 +22°C° 0 mm 4 m/s 635 mmHg 72%
    20:00 +20°C° 0 mm 4 m/s 635 mmHg 77%
    21:00 +18°C° 0 mm 3 m/s 635 mmHg 83%
    22:00 +18°C° 0 mm 3 m/s 635 mmHg 84%
    23:00 +17°C° 0 mm 3 m/s 635 mmHg 84%

    20 Juillet, Samedi

    Heure Température Précipitation Vent Pression Humidité
    00:00 +17°C° 0 mm 2 m/s 635 mmHg 85%
    01:00 +17°C° 0 mm 2 m/s 635 mmHg 86%
    02:00 +16°C° 0 mm 2 m/s 635 mmHg 87%
    03:00 +16°C° 0 mm 2 m/s 635 mmHg 87%
    04:00 +16°C° 0 mm 2 m/s 635 mmHg 86%
    05:00 +17°C° 0 mm 2 m/s 636 mmHg 86%
    06:00 +17°C° 0 mm 2 m/s 636 mmHg 85%
    07:00 +19°C° 0 mm 2 m/s 636 mmHg 78%
    08:00 +21°C° 0 mm 2 m/s 637 mmHg 71%
    09:00 +24°C° 0 mm 3 m/s 637 mmHg 65%
    10:00 +26°C° 0 mm 3 m/s 638 mmHg 62%
    11:00 +27°C° 0 mm 3 m/s 638 mmHg 59%
    12:00 +28°C° 0 mm 4 m/s 638 mmHg 56%
    13:00 +28°C° 0 mm 4 m/s 638 mmHg 56%
    14:00 +28°C° 0 mm 4 m/s 638 mmHg 57%
    15:00 +28°C° 0 mm 4 m/s 637 mmHg 57%
    16:00 +27°C° 0 mm 4 m/s 637 mmHg 61%
    17:00 +26°C° 0 mm 4 m/s 637 mmHg 65%
    18:00 +25°C° 0 mm 4 m/s 637 mmHg 69%
    19:00 +23°C° 0 mm 4 m/s 637 mmHg 74%
    20:00 +21°C° 0 mm 4 m/s 637 mmHg 78%
    21:00 +20°C° 0 mm 3 m/s 637 mmHg 83%
    22:00 +19°C° 0 mm 3 m/s 637 mmHg 83%
    23:00 +19°C° 0 mm 3 m/s 637 mmHg 84%

    21 Juillet, Dimanche

    Heure Température Précipitation Vent Pression Humidité
    00:00 +18°C° 0 mm 3 m/s 637 mmHg 84%
    01:00 +18°C° 0 mm 3 m/s 636 mmHg 84%
    02:00 +17°C° 0 mm 3 m/s 636 mmHg 83%
    03:00 +17°C° 0 mm 3 m/s 636 mmHg 83%
    04:00 +17°C° 0 mm 3 m/s 636 mmHg 82%
    05:00 +17°C° 0 mm 2 m/s 636 mmHg 81%
    06:00 +17°C° 0 mm 2 m/s 636 mmHg 80%
    07:00 +19°C° 0 mm 3 m/s 636 mmHg 73%
    08:00 +22°C° 0 mm 3 m/s 637 mmHg 66%
    09:00 +25°C° 0 mm 3 m/s 637 mmHg 60%
    10:00 +26°C° 0 mm 3 m/s 638 mmHg 56%
    11:00 +28°C° 0 mm 3 m/s 638 mmHg 53%
    12:00 +29°C° 0 mm 4 m/s 638 mmHg 50%
    13:00 +29°C° 0 mm 4 m/s 638 mmHg 50%
    14:00 +30°C° 0 mm 4 m/s 637 mmHg 50%
    15:00 +30°C° 0 mm 4 m/s 637 mmHg 50%
    16:00 +29°C° 0 mm 4 m/s 637 mmHg 54%
    17:00 +28°C° 0 mm 4 m/s 636 mmHg 59%
    18:00 +27°C° 0 mm 4 m/s 636 mmHg 63%
    19:00 +25°C° 0 mm 4 m/s 636 mmHg 67%
    20:00 +22°C° 0 mm 4 m/s 636 mmHg 71%
    21:00 +20°C° 0 mm 4 m/s 635 mmHg 76%
    22:00 +19°C° 0 mm 3 m/s 635 mmHg 76%
    23:00 +19°C° 0 mm 3 m/s 635 mmHg 76%

    22 Juillet, Lundi

    Heure Température Précipitation Vent Pression Humidité
    00:00 +18°C° 0 mm 3 m/s 635 mmHg 76%
    01:00 +18°C° 0 mm 3 m/s 635 mmHg 77%
    02:00 +17°C° 0 mm 3 m/s 634 mmHg 77%
    03:00 +17°C° 0 mm 3 m/s 634 mmHg 77%
    04:00 +17°C° 0 mm 2 m/s 634 mmHg 77%
    05:00 +17°C° 0 mm 2 m/s 634 mmHg 77%
    06:00 +18°C° 0 mm 2 m/s 635 mmHg 77%
    07:00 +20°C° 0 mm 2 m/s 635 mmHg 71%
    08:00 +23°C° 0 mm 2 m/s 636 mmHg 64%
    09:00 +25°C° 0 mm 3 m/s 636 mmHg 58%
    10:00 +27°C° 0 mm 3 m/s 637 mmHg 55%
    11:00 +28°C° 0 mm 3 m/s 637 mmHg 53%
    12:00 +29°C° 0 mm 3 m/s 637 mmHg 50%
    13:00 +29°C° 0 mm 4 m/s 637 mmHg 51%
    14:00 +30°C° 0 mm 4 m/s 637 mmHg 52%
    15:00 +30°C° 0 mm 5 m/s 636 mmHg 53%
    16:00 +29°C° 0 mm 5 m/s 636 mmHg 58%
    17:00 +27°C° 0 mm 5 m/s 636 mmHg 62%
    18:00 +26°C° 0 mm 5 m/s 635 mmHg 66%
    19:00 +23°C° 0.1 mm 5 m/s 635 mmHg 71%
    20:00 +22°C° 0.1 mm 4 m/s 635 mmHg 76%
    21:00 +20°C° 0.1 mm 4 m/s 635 mmHg 81%
    22:00 +19°C° 0.1 mm 4 m/s 635 mmHg 83%
    23:00 +19°C° 0.1 mm 3 m/s 635 mmHg 84%
    Voir plus